Weather Roundup
Issued by NWS Chicago, IL

Current Version | Previous Version | Text Only | Print | Product List | Glossary On
Versions: 1 2 3 4 5 6 7 8 9 10 11 12 13 14 15 16 17 18 19 20 21 22 23 24 25 26 27 28 29 30 31 32 33 34 35 36 37 38 39 40 41 42 43 44 45 46 47 48 49 50
000
NZUS59 KLOT 191208
HRRLOT

CHICAGO AREA WEATHER ROUNDUP
NATIONAL WEATHER SERVICE CHICAGO/ROMEOVILLE IL
600 AM CST FRI JAN 19 2018

NOTE: "FAIR" INDICATES FEW OR NO CLOUDS BELOW 12,000 FEET WITH NO
SIGNIFICANT WEATHER AND/OR OBSTRUCTIONS TO VISIBILITY.

* THESE STATIONS ARE NOT UNDER NWS QUALITY CONTROL. THEY ALSO MAY NOT
  REPORT WEATHER SUCH AS PRECIPITATION OR FOG.

ILZ005-006-012>014-019>023-191300-
NORTHEAST ILLINOIS

CITY           SKY/WX    TMP DP  RH WIND       PRES   REMARKS
OHARE            N/A     29  19  66 SW16G25   29.89F WCI  17
6HR MIN TEMP:  28; 6HR MAX TEMP:  30;

MIDWAY           N/A     29  20  69 SW14G26   29.91F WCI  18
6HR MIN TEMP:  28; 6HR MAX TEMP:  30;

AURORA           N/A     26  19  74 S14       29.91F WCI  14
6HR MIN TEMP:  23; 6HR MAX TEMP:  30;

LANSING*         N/A     24  19  81 SW17      29.95F WCI  11
JOLIET*          N/A     28  20  71 S9        29.94F WCI  20
WAUKEGAN         N/A     29  20  69 SW9       29.86R WCI  20
6HR MIN TEMP:  29; 6HR MAX TEMP:  30;

DUPAGE AIRPORT   N/A     24  19  81 S10       29.89F WCI  14
6HR MIN TEMP:  22; 6HR MAX TEMP:  27;

WHEELING         N/A     29  20  69 S12       29.90F WCI  19
6HR MIN TEMP:  29; 6HR MAX TEMP:  30;

KANKAKEE*        N/A    N/A N/A N/A SW10      29.99F
MORRIS*          N/A     27  19  72 SW15      29.93F WCI  15
LEWIS AIRPORT*   N/A     27  20  74 SW16      29.93F WCI  15
NORTHERLY ISL    N/A     30  19  63 SW12        N/A  WCI  21
$$

WIZ051-052-058>065-066-070>072-191300-
SOUTHEAST WISCONSIN

CITY           SKY/WX    TMP DP  RH WIND       PRES   REMARKS
MILWAUKEE        N/A     28  20  71 SW8       29.83F WCI  20
6HR MIN TEMP:  28; 6HR MAX TEMP:  31;

KENOSHA*         N/A     29  19  66 SW9       29.86R WCI  20
RACINE*          N/A     28  20  71 SW10      29.86S WCI  19
BURLINGTON       N/A     26  18  73 SW9       29.85S WCI  16
WAUKESHA       CLEAR     27  18  69 SW12      29.83S WCI  16
WEST BEND        N/A     27  21  80 SW8       29.80S WCI  18
$$

INZ001>003-010>013-019-020-191300-
NORTHWEST INDIANA

CITY           SKY/WX    TMP DP  RH WIND       PRES   REMARKS
GARY*          PTCLDY    27  18  69 SW9G21    29.95F WCI  17
MICHIGAN CITY* NOT AVBL
RENSSELAER*    NOT AVBL
VALPARAISO       N/A     23  16  74 S10       29.97F WCI  12
$$

LMZ740>746-191300-
SOUTHERN LAKE MICHIGAN

STATION/POSITION TIME  SKY/WX   TEMP WIND        PRES    VSBY
                                AIR  DIR/SP/G
                 (UTC)          (F)  (DEG/KT/KT) (MB)    (MI)
HARRISON CRIB    1130            31  200/ 23/ 26   N/A
BURNHAM HARBOR   1200            30  200/  8/ 10   N/A
CALUMET HARBOR   1142            27  200/ 14/ 18 1012.6F
BURNS HARBOR     1140            29  200/ 17/ 22 1014.6F
MICHIGAN CITY    1140            28  180/ 17/ 19   N/A
$$

ABBREVIATIONS USED IN REMARKS
   TC - TEMPERATURE IN CELSIUS
  WCI - WIND CHILL INDEX
   HX - HEAT INDEX
  VSB - VISIBILITY
$$




USA.gov is the U.S. government's official web portal to all federal, state and local government web resources and services.